Location: Wapato
(46.4478°N, 120.4212°W)
Time: 22:17:40
(UTC+00:00)

Vanguard 1 Rocket - Pass Details

Date: 12 May 2026
Orbit: 656 x 4211 km, 34.3° (Epoch: 2 June)

Event Time Altitude Azimuth Distance (km) Brightness Sun altitude
Rises 02:36:24 0° 261° (W) 5,507 12.6 6.7°
Reaches altitude 10° 02:39:25 10° 256° (WSW) 4,876 12.2 6.2°
Maximum altitude 02:54:20 56° 184° (S) 3,826 10.5 3.8°
Drops below altitude 10° 03:18:20 10° 116° (ESE) 7,408 11.4 0.0°
Enters shadow 03:23:59 - 113° (ESE) 8,350 11.6 -0.8°
Sets 03:24:23 0° 113° (ESE) 8,416 - -0.9°
